GFSGL_925_temp_093.txt.gz
Temp
16 16 16 16 15 15 14 13 13 12 12 11 11 10 10 10 10 10 10 10 9 9 9 8 8 8 8 8 8 8 7 7 8 8 8 8 8 8 8 8 8 8 8
16 16 15 14 14 14 13 13 12 12 11 10 10 10 10 9 9 9 9 9 9 8 8 8 8 8 8 7 7 7 7 7 7 7 7 7 7 7 7 7 7 7 7
15 15 14 13 13 13 13 12 11 11 11 10 10 9 9 9 8 8 8 8 8 8 7 7 7 7 7 7 7 7 7 7 7 7 6 6 6 6 6 6 6 6 6
14 14 13 13 12 12 11 11 11 10 10 10 10 9 9 8 8 7 7 7 7 7 7 7 7 7 7 7 7 7 7 7 6 5 5 4 4 4 4 5 4 5 5
13 13 12 12 11 11 10 10 10 10 9 9 9 8 8 8 7 7 6 6 5 6 6 6 6 6 6 5 5 5 4 3 2 2 2 2 3 3 3 3 3 4 5
13 12 11 11 10 10 10 9 9 9 9 9 9 8 8 7 7 6 5 5 5 5 5 5 5 4 4 4 5 5 5 5 3 3 2 2 2 2 2 2 3 4 4
12 11 11 10 10 10 9 9 9 8 8 8 8 8 7 7 6 5 5 4 4 4 4 4 4 4 4 4 4 5 5 5 5 4 4 4 4 3 3 4 4 4 5
12 11 10 10 10 9 9 9 8 8 8 7 7 7 6 6 5 5 4 4 4 3 3 3 4 4 3 4 4 4 3 3 4 4 4 5 4 4 5 4 4 4 5
11 11 10 10 9 9 8 8 7 7 7 6 6 6 5 5 5 4 4 3 2 3 3 3 4 4 4 3 4 3 3 3 3 4 4 4 4 4 4 4 3 2 3
10 10 9 9 8 8 7 7 7 6 6 6 5 5 5 5 5 4 3 2 2 2 3 3 4 3 4 4 3 3 3 3 3 3 3 3 4 4 4 4 4 4 3
9 8 8 8 8 7 6 6 6 6 5 5 5 5 5 4 3 3 2 2 2 2 3 3 3 3 3 3 3 2 2 2 2 2 2 3 3 4 3 3 3 2 1
8 8 8 7 7 6 6 6 5 5 5 5 5 4 4 3 2 2 2 2 3 3 3 2 2 3 3 3 3 3 3 3 1 1 1 1 2 2 2 2 2 1 1
8 8 7 7 6 6 6 5 5 5 4 4 4 3 2 2 1 2 2 2 3 2 2 2 2 3 3 2 2 2 2 0 0 0 1 1 1 1 1 1 1 0 1
8 7 7 6 6 5 5 5 4 4 3 3 1 1 1 0 0 1 1 1 1 2 1 1 2 2 2 2 1 1 1 1 1 0 0 0 0 0 0 0 0 1 1
7 7 6 5 5 5 4 4 3 2 2 0 -0 -0 -0 -0 0 1 1 1 1 1 1 1 1 1 1 1 1 1 0 1 1 0 0 0 -0 0 0 0 0 1 1
5 5 5 4 4 4 4 3 3 1 -0 -0 0 0 -0 -0 -0 0 1 1 1 1 0 -0 0 0 0 0 -0 -0 -0 0 0 0 0 0 -0 -0 -0 -0 0 0 1
4 4 3 4 4 3 3 2 1 -0 -1 -0 -0 -0 -1 -1 -0 -0 0 0 0 0 -1 -1 -1 -0 -0 -0 -1 -1 -1 -1 -1 -0 -0 0 -0 -0 -0 0 0 1 1
3 3 3 3 3 2 2 1 -1 -1 -1 -1 -1 -1 -1 -1 -0 -0 -0 -0 -1 -1 -1 -1 -1 -1 -1 -1 -1 -1 -1 -1 -1 -1 -0 -0 -0 -0 -0 0 0 -0 0
2 2 1 2 2 1 1 -1 -1 -1 -1 -1 -1 -1 -1 -1 -1 -0 -0 -1 -1 -2 -2 -2 -2 -2 -2 -2 -2 -2 -2 -2 -1 -1 -1 -0 -0 -0 -0 -0 -0 -0 -0
2 2 1 1 1 1 -1 -2 -2 -2 -1 -1 -1 -2 -1 -2 -1 -1 -1 -1 -2 -2 -2 -2 -2 -2 -2 -2 -2 -2 -2 -2 -2 -2 -1 -1 -1 -1 -0 0 0 0 -0
1 1 1 1 1 0 -1 -2 -2 -2 -3 -2 -2 -2 -1 -1 -1 -1 -1 -2 -2 -2 -2 -2 -2 -2 -2 -2 -2 -2 -2 -2 -2 -2 -1 -1 -1 -1 0 1 1 0 -0
1 1 1 1 0 -0 -2 -3 -3 -3 -3 -3 -2 -2 -2 -2 -2 -2 -2 -2 -2 -3 -3 -3 -3 -3 -3 -3 -3 -3 -2 -3 -2 -2 -2 -1 -1 -1 -0 0 1 1 1
1 1 1 1 0 -2 -3 -3 -3 -3 -3 -2 -2 -2 -2 -2 -2 -2 -2 -2 -2 -2 -2 -2 -3 -3 -3 -3 -3 -3 -3 -3 -2 -2 -2 -2 -1 -1 -1 0 1 1 1
0 0 0 0 -1 -3 -4 -4 -3 -3 -2 -2 -2 -2 -2 -2 -2 -2 -2 -2 -2 -2 -2 -2 -2 -3 -3 -3 -3 -3 -3 -3 -2 -2 -2 -2 -2 -1 -1 0 1 1 1
-0 -0 -0 -0 -2 -4 -4 -3 -3 -3 -2 -2 -2 -2 -2 -3 -3 -3 -3 -3 -3 -2 -2 -3 -3 -3 -3 -3 -3 -3 -3 -3 -2 -2 -2 -2 -2 -1 -0 1 1 1 2
-0 -0 -0 -1 -4 -4 -4 -3 -3 -3 -3 -2 -2 -2 -3 -3 -3 -3 -3 -3 -3 -3 -3 -3 -3 -3 -3 -3 -3 -3 -2 -2 -2 -2 -2 -2 -2 -1 -1 0 1 1 3

GFSGL_925_temp_096.txt.gz
Temp
16 16 16 16 15 15 14 14 13 12 12 11 11 11 10 10 10 10 9 9 9 9 9 9 8 8 8 8 8 8 7 7 6 6 7 7 7 7 7 7 7 7 7
16 16 15 15 15 14 13 13 12 12 11 11 10 10 10 9 9 9 9 9 8 8 8 8 8 8 7 7 7 7 7 7 7 5 6 6 7 7 6 6 6 6 6
15 15 14 14 14 13 13 12 12 11 11 11 10 10 9 9 9 8 8 8 7 7 7 7 7 7 7 7 7 7 7 7 6 6 6 6 6 6 5 5 5 5 5
14 14 13 13 12 12 11 11 11 11 10 10 10 10 9 8 8 8 7 7 7 6 6 6 6 6 6 6 6 6 5 6 5 4 3 3 3 4 4 4 4 4 4
13 13 12 11 11 11 10 10 10 10 10 9 9 9 8 8 8 8 7 6 6 5 5 5 5 5 6 6 6 5 5 4 3 3 3 2 2 3 2 3 3 3 4
13 11 11 11 10 10 10 10 9 9 9 9 9 8 8 8 7 7 7 6 5 4 4 4 4 4 4 4 5 5 5 5 4 3 3 3 3 2 2 2 3 2 2
12 11 11 10 10 10 9 9 9 9 9 8 8 8 7 7 6 6 6 5 5 4 3 3 3 3 4 3 3 4 4 4 4 4 3 3 2 2 3 2 2 2 3
12 11 10 10 10 9 9 8 8 8 8 7 7 7 6 6 6 6 5 5 4 3 3 3 3 3 3 3 4 3 3 3 3 3 3 3 4 4 4 3 3 3 3
11 11 10 9 9 8 8 8 7 7 7 6 6 6 5 5 5 5 5 4 3 3 2 2 2 3 3 4 4 3 3 3 3 3 4 4 4 4 4 3 3 3 3
10 9 9 8 8 8 7 7 6 6 6 5 5 5 5 5 5 4 3 4 2 2 2 2 2 3 4 4 4 3 3 3 2 3 3 2 2 3 3 4 4 3 3
9 8 8 8 8 7 7 6 6 5 5 5 5 5 5 4 3 3 3 2 2 2 2 2 2 2 3 4 4 4 2 2 2 2 1 2 2 2 3 3 3 3 2
8 8 8 7 7 6 6 6 5 5 5 4 4 4 3 2 2 2 2 2 2 2 1 1 1 2 3 3 3 3 3 3 1 1 0 0 0 1 1 1 1 1 1
8 8 7 7 6 6 5 5 5 4 4 3 2 1 1 1 1 1 1 2 2 2 2 2 2 2 2 2 2 2 2 1 1 0 0 0 1 0 -0 0 1 1 1
7 7 7 6 5 5 5 4 4 3 2 2 1 0 -0 -0 0 0 0 0 0 1 1 0 0 1 1 1 1 1 1 1 0 -0 -0 0 0 0 0 0 0 0 0
6 6 5 5 4 4 4 4 3 3 1 1 -0 -0 -1 -1 -1 0 0 0 0 1 1 -0 -0 -0 -0 -0 -0 0 0 -0 -0 -0 0 -0 -0 -0 -0 -0 0 -0 -0
4 4 4 3 3 3 3 2 2 1 0 0 0 0 -0 -0 -0 0 0 1 1 1 -0 -1 -1 -1 -1 -1 -1 -1 -1 -1 -1 -1 -1 -0 -1 -0 -0 -0 -0 -0 -0
4 3 3 3 3 3 2 1 0 -0 -1 -1 -1 -0 -1 -1 -0 -0 0 0 0 0 -1 -2 -2 -2 -2 -2 -1 -1 -1 -1 -1 -1 -1 -1 -0 -0 -0 -0 -0 -0 -0
2 3 2 1 1 2 1 -0 -1 -1 -1 -1 -1 -1 -1 -1 -0 -0 -0 0 -1 -1 -2 -2 -2 -2 -2 -2 -2 -2 -2 -2 -2 -2 -2 -1 -1 -0 -0 -0 -0 -0 -1
2 2 2 1 1 1 0 -0 -1 -2 -2 -2 -2 -2 -2 -1 -1 -1 -1 -1 -1 -2 -2 -2 -2 -2 -2 -2 -2 -2 -2 -2 -2 -2 -2 -1 -1 -1 -1 -1 -1 -0 -0
2 1 1 1 1 1 0 -1 -2 -2 -3 -3 -3 -2 -2 -2 -2 -2 -2 -2 -2 -2 -2 -3 -3 -2 -2 -2 -3 -2 -2 -2 -2 -2 -2 -2 -1 -1 -1 -1 -1 -1 0
1 1 1 1 1 0 -1 -2 -3 -3 -3 -3 -3 -2 -1 -1 -2 -2 -2 -2 -2 -2 -2 -3 -3 -3 -3 -3 -3 -3 -3 -3 -2 -2 -2 -2 -2 -1 -1 -1 -1 -0 -0
0 1 0 0 0 -1 -2 -3 -3 -3 -3 -3 -3 -3 -2 -2 -2 -2 -3 -3 -2 -2 -2 -2 -2 -2 -3 -3 -3 -3 -3 -3 -3 -2 -2 -2 -2 -1 -1 -1 -1 -0 0
0 0 0 0 -1 -2 -3 -4 -3 -3 -3 -3 -3 -2 -2 -2 -3 -3 -3 -3 -3 -3 -3 -3 -3 -2 -2 -2 -3 -3 -3 -3 -3 -3 -2 -2 -2 -2 -1 -1 -1 -0 0
-0 -0 -0 -0 -2 -3 -4 -4 -3 -3 -3 -3 -3 -3 -3 -3 -3 -3 -3 -3 -3 -3 -3 -3 -3 -2 -2 -3 -3 -3 -3 -3 -3 -3 -2 -2 -2 -2 -2 -1 -1 -0 0
-1 -0 -0 -2 -3 -4 -4 -4 -4 -3 -3 -3 -3 -3 -3 -3 -3 -3 -3 -3 -3 -3 -3 -3 -3 -3 -3 -3 -3 -3 -3 -3 -3 -3 -2 -2 -2 -2 -2 -1 -1 -0 0
-1 -1 -1 -2 -3 -4 -3 -3 -3 -3 -3 -3 -3 -3 -3 -3 -3 -3 -3 -3 -3 -3 -3 -2 -2 -2 -2 -3 -2 -2 -3 -2 -2 -2 -2 -2 -2 -2 -2 -1 -1 0 1

GFSGL_925_temp_102.txt.gz
Temp
15 15 15 15 15 15 14 14 13 13 13 12 12 11 11 11 10 10 9 9 9 8 8 8 7 7 7 7 7 6 6 6 3 5 6 6 6 6 6 6 6 6 6
15 15 15 14 14 14 13 13 13 12 12 12 11 11 10 10 9 9 9 8 8 8 7 7 7 7 6 6 5 5 5 5 4 3 4 5 5 6 5 5 6 6 5
14 14 13 13 13 12 12 12 11 11 11 10 10 10 10 9 9 8 8 8 7 7 7 6 6 5 5 5 4 4 5 5 5 4 3 4 4 4 4 4 4 4 4
13 13 12 12 12 11 11 11 10 10 10 10 9 9 9 8 8 8 8 7 7 7 6 6 5 4 4 4 4 4 4 4 4 4 3 3 3 3 2 2 2 2 3
12 12 11 11 11 10 10 10 10 9 9 9 8 8 8 8 8 7 7 7 6 6 6 5 5 4 4 4 4 4 4 4 3 2 2 2 3 2 2 2 2 2 3
12 11 11 10 10 10 9 9 9 9 8 8 8 8 7 7 7 6 6 6 6 5 5 5 5 3 3 3 3 3 4 4 3 2 2 2 2 2 2 2 2 2 2
11 10 10 10 9 9 9 8 8 7 7 7 7 6 6 6 5 6 6 6 5 5 4 4 4 3 3 3 2 2 3 3 4 3 3 2 2 3 3 2 2 2 2
10 10 9 9 9 8 8 7 7 6 6 6 6 5 5 5 4 5 5 5 4 4 3 3 3 3 3 2 2 2 3 3 3 2 2 2 3 3 3 3 2 2 2
9 9 8 8 8 7 7 7 6 6 6 5 5 5 4 4 4 4 4 4 3 3 3 2 2 2 2 2 3 3 2 2 2 2 3 3 3 3 3 3 2 2 2
8 8 8 7 7 7 6 6 6 5 5 4 4 4 3 3 2 2 2 3 3 2 2 1 1 1 2 3 3 3 3 2 2 2 1 2 1 2 2 2 2 2 2
8 7 7 7 7 6 6 5 5 4 4 4 3 3 2 2 1 1 2 2 2 1 1 1 1 1 2 3 3 2 1 2 2 1 1 1 1 1 1 1 1 1 0
7 7 6 6 5 5 5 4 4 4 3 2 2 1 1 1 1 0 1 2 2 2 1 1 1 1 2 3 3 2 3 3 1 0 0 0 0 0 0 0 0 0 1
6 6 5 5 4 4 4 3 3 2 2 1 0 0 -0 0 -0 -0 0 1 1 1 1 1 2 2 1 1 0 1 2 0 0 -0 -0 -0 -0 -0 -0 -0 -0 0 0
5 4 4 3 3 3 3 2 2 1 1 0 0 -0 -0 -0 -1 -0 -0 -0 -0 -0 -0 1 0 -0 -0 -0 -1 -1 -1 -1 -1 -1 -1 -1 -1 -1 -1 -0 -0 -0 -0
3 3 3 2 2 2 2 1 1 0 0 0 -0 -0 -1 -1 -1 -0 0 -0 0 0 1 0 -1 -1 -1 -2 -2 -2 -2 -2 -2 -1 -1 -1 -1 -1 -1 -1 -1 -0 -0
3 2 2 2 1 1 1 1 0 -1 -1 -1 -0 -0 -0 -0 -0 -0 -0 -0 0 1 -0 -1 -1 -1 -2 -2 -2 -2 -2 -2 -2 -2 -2 -2 -2 -2 -2 -1 -1 -1 -1
2 1 1 1 1 0 -0 -1 -1 -1 -2 -2 -2 -2 -1 -1 -1 -1 -1 -0 -1 -1 -2 -2 -2 -3 -2 -2 -2 -2 -2 -2 -2 -2 -2 -2 -2 -3 -2 -1 -1 -1 -1
1 1 1 1 0 -0 -0 -1 -2 -2 -3 -3 -3 -3 -2 -2 -1 -1 -1 -1 -2 -2 -2 -3 -3 -2 -2 -2 -3 -3 -2 -2 -2 -2 -2 -3 -3 -3 -2 -2 -1 -1 -1
1 1 0 0 -0 -1 -1 -2 -3 -3 -3 -3 -3 -3 -3 -3 -2 -2 -2 -3 -3 -3 -3 -3 -3 -3 -3 -3 -3 -3 -3 -3 -3 -3 -2 -2 -3 -3 -2 -2 -1 -1 -0
0 0 -0 -0 -1 -2 -2 -3 -3 -3 -3 -4 -4 -4 -3 -3 -3 -3 -3 -4 -3 -3 -3 -3 -3 -3 -3 -3 -3 -3 -3 -3 -3 -3 -2 -3 -3 -3 -2 -2 -2 -1 -1
-0 -0 -1 -1 -2 -3 -3 -3 -4 -4 -4 -4 -4 -3 -2 -2 -3 -4 -4 -3 -3 -3 -3 -3 -3 -3 -3 -3 -3 -3 -3 -3 -3 -3 -3 -3 -3 -2 -2 -2 -2 -2 -1
-0 -1 -1 -2 -3 -3 -3 -3 -3 -3 -4 -4 -4 -4 -3 -3 -3 -3 -3 -3 -3 -3 -3 -3 -3 -3 -3 -3 -3 -3 -3 -2 -2 -3 -2 -3 -3 -3 -2 -2 -2 -2 -1
-1 -1 -2 -2 -3 -3 -3 -3 -3 -4 -4 -4 -4 -4 -3 -3 -3 -3 -3 -3 -3 -3 -3 -3 -3 -3 -2 -3 -3 -3 -3 -2 -2 -2 -2 -3 -3 -3 -2 -2 -2 -2 -1
-1 -1 -2 -3 -3 -3 -3 -3 -3 -3 -3 -3 -4 -4 -4 -3 -3 -3 -3 -3 -3 -3 -3 -2 -2 -2 -2 -2 -3 -3 -3 -3 -3 -3 -3 -3 -3 -2 -2 -2 -2 -2 -1
-1 -2 -2 -3 -3 -3 -3 -3 -3 -3 -3 -4 -4 -4 -4 -3 -3 -3 -3 -3 -3 -2 -2 -2 -1 -1 -2 -2 -2 -3 -3 -3 -3 -3 -3 -3 -3 -2 -2 -2 -2 -2 -2
-1 -2 -2 -3 -3 -3 -3 -3 -3 -3 -4 -4 -4 -4 -3 -3 -3 -3 -3 -3 -2 -1 -1 -1 -1 -1 -2 -2 -2 -3 -3 -3 -3 -3 -3 -2 -2 -2 -2 -2 -2 -1 -1

GFSGL_925_temp_108.txt.gz
Temp
12 13 12 11 12 12 12 12 13 13 13 13 12 12 11 11 11 10 10 10 9 9 8 8 7 7 7 6 6 5 5 4 1 3 3 4 4 5 5 5 5 5 5
12 12 12 12 12 12 12 12 12 11 11 11 11 11 11 10 10 9 9 9 8 8 7 7 7 6 6 6 5 5 4 4 2 2 3 3 4 4 4 4 4 4 4
12 12 11 11 11 11 11 11 11 11 11 10 10 10 10 9 9 9 8 8 8 7 7 7 6 6 6 5 5 4 4 4 3 2 2 3 3 3 3 3 3 3 3
12 11 11 11 10 10 10 10 10 10 10 9 9 9 9 8 8 8 7 7 7 7 6 6 6 6 5 5 4 4 4 4 3 3 2 2 2 3 2 2 3 2 3
11 11 10 10 10 10 10 10 9 9 9 8 8 8 8 7 7 7 7 6 6 6 6 6 5 5 5 4 4 4 4 4 3 3 1 2 3 3 2 2 2 1 2
10 9 9 9 9 9 9 8 8 8 7 7 7 7 6 6 6 5 6 6 5 5 5 5 5 5 4 4 4 4 4 4 3 2 2 2 2 3 3 3 2 1 2
9 8 8 8 8 8 8 8 7 7 6 6 6 6 5 5 5 5 5 5 5 4 4 4 4 3 3 3 3 2 3 3 3 3 3 2 2 2 3 3 2 2 2
9 9 9 9 8 8 7 7 6 6 6 5 5 5 5 4 4 4 4 3 3 3 3 3 2 2 2 2 2 2 2 2 2 2 3 3 3 3 3 3 2 1 1
8 8 7 7 7 7 6 6 5 5 5 4 4 4 3 3 3 2 2 2 2 2 2 2 2 2 2 2 2 2 2 1 2 3 3 3 3 3 3 3 1 1 2
7 7 7 6 6 5 5 5 4 4 4 3 3 3 2 2 2 1 1 1 1 1 1 2 2 2 2 2 2 2 2 2 2 2 2 2 2 3 2 2 2 1 1
6 6 6 5 5 4 4 4 4 3 3 2 2 2 1 1 0 -0 1 1 1 1 1 1 1 1 1 2 3 3 2 2 1 1 1 1 1 2 2 2 1 0 -0
6 5 4 4 4 4 3 3 3 2 2 1 1 0 0 -0 -0 -0 0 1 1 1 1 1 1 1 1 2 2 1 2 2 1 -0 -0 -0 0 1 1 -0 -1 -0 -0
5 4 3 3 3 3 2 2 2 1 0 -0 -1 -1 -1 -0 -0 -1 -0 -0 0 0 0 1 1 1 1 1 0 1 1 0 -0 -1 -1 -1 -1 -1 -1 -1 -1 -1 -1
4 3 2 2 2 2 1 1 0 -0 -1 -1 -1 -1 -1 -1 -1 -1 -1 -1 -0 -0 0 0 -0 0 -0 -0 -1 -1 -1 -1 -2 -2 -2 -1 -1 -1 -2 -2 -2 -1 -2
3 2 2 1 1 1 0 -0 -1 -1 -1 -1 -1 -1 -1 -2 -1 -0 -0 -0 -1 -0 0 -1 -1 -2 -2 -2 -2 -2 -2 -2 -2 -3 -2 -2 -2 -2 -2 -2 -2 -2 -2
2 1 1 1 0 0 -0 -1 -1 -1 -2 -2 -2 -2 -2 -1 -1 -1 -1 -0 -0 -0 -1 -2 -2 -3 -3 -3 -3 -3 -3 -2 -2 -2 -2 -2 -2 -2 -2 -2 -2 -3 -3
2 1 1 0 -0 -1 -1 -2 -3 -2 -2 -2 -3 -2 -2 -2 -1 -1 -1 -1 -1 -2 -3 -3 -4 -4 -4 -3 -3 -3 -3 -3 -3 -3 -3 -3 -3 -2 -2 -2 -3 -3 -2
1 0 0 -0 -1 -2 -2 -3 -3 -4 -4 -3 -2 -4 -3 -2 -2 -1 -1 -2 -3 -3 -4 -4 -4 -4 -4 -3 -3 -3 -3 -3 -3 -3 -3 -3 -3 -2 -2 -2 -3 -2 -2
1 0 -0 -1 -1 -2 -2 -3 -3 -4 -4 -4 -5 -4 -3 -3 -2 -2 -3 -3 -4 -4 -4 -4 -4 -4 -3 -3 -3 -3 -3 -3 -3 -3 -3 -3 -3 -2 -2 -2 -3 -2 -2
0 -1 -1 -1 -2 -2 -3 -3 -4 -4 -4 -5 -5 -4 -3 -2 -3 -4 -4 -4 -4 -4 -3 -3 -3 -3 -3 -3 -3 -3 -3 -3 -3 -3 -3 -3 -3 -3 -3 -3 -3 -3 -2
-0 -0 -1 -1 -2 -3 -3 -4 -4 -4 -4 -5 -4 -4 -3 -3 -4 -4 -4 -3 -3 -3 -3 -3 -3 -3 -3 -3 -3 -3 -3 -3 -3 -3 -3 -3 -3 -3 -3 -3 -3 -3 -2
-0 -1 -1 -2 -3 -3 -3 -3 -3 -3 -4 -4 -4 -4 -3 -4 -4 -4 -3 -3 -3 -3 -2 -2 -2 -2 -2 -2 -2 -3 -3 -3 -3 -3 -2 -3 -3 -2 -3 -3 -3 -3 -2
-0 -1 -2 -2 -3 -3 -3 -3 -4 -4 -4 -4 -3 -4 -4 -4 -4 -4 -3 -3 -3 -2 -2 -2 -2 -1 -1 -2 -2 -3 -3 -3 -3 -3 -3 -2 -2 -2 -2 -3 -3 -2 -2
-1 -1 -2 -2 -3 -3 -4 -4 -4 -4 -4 -4 -4 -4 -4 -4 -4 -3 -3 -3 -3 -2 -2 -1 -1 -1 -1 -1 -1 -2 -2 -3 -3 -3 -3 -3 -3 -3 -2 -3 -2 -2 -2
-1 -1 -2 -3 -3 -4 -4 -4 -4 -4 -4 -4 -4 -4 -4 -4 -4 -3 -3 -3 -2 -2 -1 -1 -0 -0 0 1 0 -0 -1 -1 -2 -3 -3 -3 -3 -3 -3 -3 -3 -2 -2
-1 -1 -2 -3 -3 -4 -4 -4 -4 -4 -4 -4 -4 -4 -4 -4 -4 -3 -3 -2 -2 -1 -1 -0 0 0 1 1 1 1 1 1 1 0 -0 -1 -2 -2 -2 -2 -2 -2 -2

GFSGL_925_temp_114.txt.gz
Temp
13 13 13 12 12 11 11 11 10 10 9 9 9 9 10 11 10 10 9 9 10 9 9 9 9 9 9 9 8 8 8 8 9 9 9 8 7 7 7 7 6 6 6
10 11 10 10 10 10 10 10 10 10 9 9 9 8 8 9 9 10 10 9 9 9 9 9 9 8 8 8 8 8 8 8 7 7 8 7 7 6 6 6 6 6 6
10 9 9 9 9 9 9 9 9 9 9 9 9 9 9 9 9 9 9 9 9 9 8 8 8 8 8 8 8 7 7 7 7 7 6 6 6 6 6 6 6 6 6
10 10 9 9 9 9 9 9 9 9 9 9 9 8 8 8 8 8 8 8 8 8 8 8 8 8 7 8 8 7 7 7 7 6 5 4 5 6 6 5 5 5 5
10 10 9 9 9 9 8 8 8 8 8 8 8 8 7 7 7 7 7 7 8 8 7 7 7 6 6 6 6 6 6 6 5 3 3 4 5 6 5 5 5 5 4
10 9 9 9 8 8 8 8 8 8 8 7 7 7 7 6 5 5 5 7 7 7 7 6 6 6 5 5 5 5 5 4 3 3 4 4 5 5 4 4 4 5 5
10 10 9 9 8 8 8 8 7 7 7 7 7 6 6 6 5 4 4 6 5 5 5 5 5 5 4 4 5 4 4 4 4 4 5 5 4 4 4 4 4 4 4
10 9 9 9 8 8 7 7 7 7 6 6 6 5 5 5 3 3 3 4 5 4 4 4 4 4 4 4 3 4 4 4 4 3 3 3 4 4 5 5 5 4 4
9 9 8 8 7 7 7 6 6 6 6 5 5 4 4 4 2 2 2 3 4 4 4 3 3 3 3 3 2 3 3 3 3 3 3 3 4 3 3 3 3 2 1
8 7 7 7 7 6 6 5 5 5 4 4 4 4 3 3 2 1 1 2 3 3 3 3 2 2 2 2 2 2 2 3 3 3 3 3 2 2 2 3 3 2 2
7 6 6 6 5 5 4 4 4 4 4 4 3 3 3 2 2 1 1 1 1 2 2 2 2 1 2 2 2 2 2 3 2 1 1 2 2 3 3 3 3 2 3
6 5 5 5 4 4 4 3 3 3 3 3 3 3 3 2 1 0 0 1 1 1 1 1 1 1 2 2 2 2 2 2 1 1 2 2 3 3 3 3 2 2 1
5 5 4 4 3 3 3 3 3 2 2 3 2 2 2 1 1 0 0 0 1 1 1 1 1 1 1 1 1 1 1 1 2 2 2 2 2 2 1 0 0 -0 -0
5 4 4 4 3 3 2 2 2 2 2 2 2 1 1 1 1 1 0 -0 0 1 1 0 -0 -0 0 1 0 1 0 0 -0 -0 -0 -0 -1 -1 -1 -1 -1 -1 -1
5 4 3 3 3 2 2 1 1 1 -0 0 1 0 1 0 0 -0 -0 0 0 0 0 0 1 1 1 0 -0 -0 -1 -1 -1 -1 -1 -1 -1 -1 -1 -1 -1 -1 -1
4 4 3 3 2 2 2 2 0 -1 -2 -2 -2 -2 -1 -1 -1 -0 -0 0 -0 -1 -0 -0 -0 -1 -1 -1 -1 -1 -2 -2 -2 -2 -1 -1 -1 -1 -1 -1 -1 -1 -1
4 3 3 2 2 2 1 1 1 1 -1 -2 -3 -2 -2 -1 -1 -1 -1 -1 -1 -2 -2 -2 -2 -2 -2 -2 -2 -2 -2 -2 -2 -2 -2 -2 -2 -1 -1 -1 -1 -1 -1
3 2 2 2 1 1 1 0 0 0 0 0 -1 -2 -2 -2 -1 -2 -2 -2 -2 -2 -2 -2 -1 -1 -2 -2 -2 -2 -2 -2 -2 -2 -2 -2 -2 -2 -1 -1 -1 -1 -1
2 2 2 1 0 -0 -0 -0 -0 -0 -0 -1 -2 -2 -2 -2 -2 -2 -2 -2 -2 -2 -2 -2 -2 -2 -2 -2 -2 -2 -2 -2 -2 -2 -2 -2 -2 -2 -2 -1 -1 -1 -1
2 1 1 1 0 -0 -0 -0 -0 -0 -1 -2 -2 -2 -2 -2 -2 -2 -2 -2 -2 -3 -2 -2 -2 -2 -1 -1 -1 -2 -2 -2 -2 -2 -2 -2 -2 -2 -2 -1 -1 -1 -1
2 0 -0 0 0 -0 -1 -1 -1 -1 -2 -1 -2 -2 -2 -2 -3 -3 -2 -2 -2 -2 -2 -2 -2 -1 -1 -1 -1 -1 -2 -2 -2 -2 -2 -2 -2 -2 -2 -2 -2 -1 -2
1 1 0 0 -0 -1 -1 -1 -1 -2 -2 -1 -2 -2 -3 -2 -3 -3 -2 -2 -2 -2 -2 -2 -1 -1 -1 -1 -1 -1 -1 -1 -1 -2 -2 -2 -2 -2 -2 -2 -2 -2 -1
1 0 -0 -0 -1 -2 -1 -2 -1 -1 -1 -2 -2 -3 -3 -3 -3 -3 -3 -3 -2 -2 -2 -1 -1 -1 -0 -0 -1 -0 -0 -0 -0 -1 -1 -2 -2 -2 -2 -2 -2 -2 -1
0 0 0 -0 -1 -1 -1 -1 -1 -2 -3 -2 -2 -3 -3 -4 -3 -3 -3 -3 -3 -2 -2 -1 -1 -1 -1 -0 -1 -0 -0 -0 -0 -0 -0 -1 -1 -2 -2 -2 -1 -1 -1
0 0 0 -0 -1 -2 -2 -2 -2 -3 -3 -3 -3 -3 -4 -4 -4 -3 -3 -3 -3 -3 -2 -2 -1 -1 -0 -1 -1 -1 -1 -1 -1 -0 -0 -0 -0 -0 -1 -2 -2 -2 -1
-0 -0 -0 -1 -2 -2 -2 -2 -3 -3 -3 -3 -3 -3 -4 -4 -4 -4 -3 -3 -3 -3 -3 -2 -1 -1 -1 -1 -1 -1 -0 -1 -1 -1 -0 -0 0 0 -0 -1 -1 -1 -1

GFSGL_925_temp_117.txt.gz
Temp
12 12 12 12 11 11 11 10 10 9 9 9 9 9 9 9 9 10 10 10 10 10 10 10 11 10 10 10 9 9 9 9 10 10 10 10 10 9 9 8 7 7 7
10 10 10 10 10 10 9 9 10 9 9 9 8 9 9 9 9 9 10 10 11 11 10 10 10 10 9 9 9 9 9 9 9 9 9 8 8 8 8 7 6 6 6
11 10 9 9 10 9 10 9 10 9 9 10 10 10 10 10 10 11 11 11 11 11 10 9 9 9 9 9 9 9 8 8 8 8 8 8 7 7 6 7 7 7 6
10 10 10 10 10 10 11 11 11 11 10 10 10 10 10 9 9 9 9 10 9 9 9 9 9 9 9 9 8 8 8 8 8 8 8 7 6 5 5 6 6 5 5
11 10 10 10 10 10 10 10 10 10 10 9 9 9 9 9 7 7 8 8 8 9 9 9 8 8 7 7 6 6 6 7 7 5 5 5 4 5 6 6 5 5 5
11 11 10 10 10 10 10 9 9 9 9 9 8 8 8 8 5 5 5 6 7 8 8 7 7 7 6 6 6 6 6 5 5 5 4 4 4 5 5 5 5 4 4
11 11 11 10 10 10 9 9 8 9 8 8 8 7 7 6 5 4 4 5 6 6 6 6 6 6 6 5 5 5 5 5 5 5 5 5 5 5 5 5 4 4 4
12 11 11 10 9 9 9 9 8 8 8 7 7 6 6 5 4 3 3 4 5 5 5 5 5 5 5 4 4 4 4 4 5 5 4 4 4 4 4 4 4 4 3
11 11 10 10 9 9 8 8 7 7 7 6 6 6 5 5 4 3 2 3 4 4 5 5 4 4 4 3 3 2 2 3 3 4 4 4 4 4 4 3 3 2 2
10 9 9 9 8 8 7 6 6 6 6 6 6 5 5 5 4 3 2 2 3 4 3 3 2 2 3 2 2 2 2 3 3 4 3 3 3 3 3 3 3 3 3
9 8 8 8 7 6 6 6 6 5 5 5 5 5 5 4 3 2 1 2 2 2 3 2 2 2 2 2 2 2 2 3 2 1 0 1 1 2 3 3 3 3 2
8 8 7 7 6 6 5 5 5 5 5 5 5 5 4 4 3 2 1 1 1 1 1 1 1 2 2 2 2 2 2 2 2 2 2 2 2 2 3 3 3 3 2
8 7 7 6 5 5 5 5 5 4 4 4 4 4 4 3 2 2 1 1 1 1 1 1 2 1 1 1 1 2 2 1 1 1 1 2 1 0 1 0 0 1 1
8 7 6 6 5 5 4 4 4 4 4 3 3 3 2 2 2 1 0 0 0 1 1 0 1 1 1 1 1 1 0 0 -0 -1 -1 -1 -1 -1 -1 -1 -1 -1 -1
7 7 6 5 5 5 4 3 3 3 1 1 1 1 1 1 0 -0 0 0 0 0 0 0 0 0 0 -0 -0 -1 -1 -1 -1 -1 -1 -1 -1 -1 -1 -1 -1 -1 -1
7 6 6 5 4 4 4 4 2 1 1 -0 -2 -1 -1 -1 -1 -0 0 -0 -0 -0 -1 -0 -1 -1 -2 -2 -2 -2 -2 -1 -2 -2 -2 -2 -1 -1 -1 -1 -0 -1 -1
7 6 5 4 4 4 3 3 3 2 1 0 -1 -2 -1 -1 -1 -0 -1 -1 -1 -1 -1 -1 -1 -1 -1 -1 -1 -2 -2 -1 -2 -2 -2 -2 -2 -2 -1 -1 -1 -1 -1
6 5 5 4 4 3 3 3 2 2 2 2 0 -1 -1 -2 -1 -1 -1 -1 -2 -2 -1 -1 -1 -1 -1 -1 -1 -2 -2 -2 -2 -2 -2 -2 -2 -2 -1 -1 -1 -1 -1
4 4 4 3 3 2 2 2 2 2 1 1 -0 -1 -1 -2 -1 -1 -2 -2 -2 -2 -2 -2 -2 -1 -1 -1 -1 -1 -1 -2 -2 -2 -2 -2 -2 -2 -2 -2 -2 -1 -1
4 4 3 3 2 2 1 1 1 1 1 0 -0 -1 -2 -2 -2 -2 -2 -2 -2 -2 -2 -2 -2 -1 -1 -1 -1 -1 -1 -1 -1 -2 -2 -2 -2 -2 -2 -2 -1 -1 -1
3 1 2 2 2 2 1 1 1 1 0 0 -0 -1 -2 -2 -2 -2 -2 -2 -2 -2 -2 -2 -2 -1 -1 -1 -1 -1 -1 -1 -1 -1 -2 -2 -2 -2 -2 -2 -2 -2 -2
3 1 1 2 1 1 1 1 0 -0 0 0 -1 -2 -2 -2 -3 -3 -3 -2 -2 -2 -2 -2 -1 -1 -1 -1 -1 -1 -0 -1 -0 -1 -1 -1 -1 -2 -2 -2 -2 -2 -2
3 2 2 1 1 0 -0 0 0 0 0 -0 -1 -2 -2 -3 -3 -3 -3 -2 -2 -2 -2 -2 -2 -2 -1 -1 -1 -1 -1 -0 -1 -1 -1 -0 -1 -1 -1 -2 -2 -2 -2
2 2 2 2 1 0 0 0 0 -1 -2 -1 -1 -2 -3 -3 -4 -3 -3 -3 -3 -3 -3 -2 -2 -2 -2 -2 -1 -1 -1 -0 -1 -1 -1 -1 -0 -0 -1 -1 -2 -1 -1
2 2 2 1 0 0 -0 -0 -0 -1 -2 -2 -1 -2 -3 -3 -4 -4 -3 -3 -3 -3 -3 -3 -3 -2 -2 -2 -1 -1 -1 -1 -1 -1 -1 -1 -1 -0 -0 -0 -1 -1 -1
2 2 2 1 0 -0 -0 -1 -1 -2 -3 -2 -2 -2 -4 -4 -4 -4 -3 -3 -3 -3 -3 -3 -3 -3 -2 -2 -2 -2 -2 -1 -1 -1 -1 -1 -1 -0 -0 0 -0 -1 -1

GFSGL_925_temp_123.txt.gz
Temp
11 11 11 11 11 11 10 10 10 10 10 9 9 8 8 8 9 9 10 10 11 11 11 11 11 10 10 10 10 10 10 10 8 8 8 9 9 9 8 8 7 7 6
10 10 10 10 10 10 10 9 9 9 9 9 8 9 9 9 9 9 9 9 10 10 9 9 9 9 9 9 9 9 9 8 8 7 8 8 8 8 8 8 7 7 6
10 10 10 10 10 10 9 9 9 9 8 8 8 9 9 9 9 9 9 9 9 9 9 9 9 9 9 8 8 8 7 7 6 6 6 6 6 7 7 6 7 7 7
10 10 10 10 10 10 10 9 9 9 9 9 9 9 9 9 9 9 9 9 8 8 8 8 8 8 8 8 8 7 7 7 6 6 5 5 5 5 5 5 5 5 5
10 10 10 10 10 10 10 9 9 9 9 9 9 8 8 8 7 8 8 7 7 7 7 7 7 7 6 7 6 6 6 6 6 5 5 4 4 5 4 4 4 4 4
10 10 10 9 9 9 9 9 9 8 8 8 8 7 7 6 5 5 6 6 5 5 5 6 6 6 5 5 5 5 5 5 4 4 4 3 3 4 4 4 4 4 3
9 9 9 9 9 8 8 8 8 7 7 7 7 6 5 5 4 4 4 5 4 4 4 5 5 5 5 5 4 4 4 3 3 3 3 3 3 3 3 3 3 3 2
9 9 9 9 8 8 8 8 7 7 6 6 6 5 5 4 4 3 2 3 3 3 3 3 3 3 3 3 3 3 3 3 3 3 3 3 3 3 3 2 2 2 2
9 9 9 8 8 7 7 7 6 6 6 5 5 5 5 4 3 3 2 2 2 2 2 2 2 2 2 3 3 3 3 3 3 2 2 3 3 3 2 2 2 2 2
9 9 8 8 7 7 6 6 6 5 5 5 5 4 4 4 3 2 1 1 1 1 1 1 2 2 2 3 3 2 1 1 2 1 1 1 1 2 2 2 1 1 1
9 8 8 7 7 6 6 5 5 5 5 5 4 4 3 3 3 2 2 2 2 2 1 1 1 1 2 2 2 2 2 1 1 1 0 0 0 0 0 0 -0 -0 -0
8 7 7 6 6 5 5 5 4 4 4 4 3 3 2 2 2 2 2 2 2 1 1 1 1 1 2 1 1 1 1 -0 -0 -0 -0 -0 -0 -0 -0 -0 -0 -0 -1
8 7 6 6 5 5 5 4 4 4 3 3 2 2 2 1 1 1 1 1 1 1 1 1 0 1 0 0 -0 -0 -1 -1 -1 -1 -1 -1 -1 -1 -1 -0 -1 -1 -1
7 6 6 5 5 5 4 4 4 3 3 2 1 1 0 0 0 0 1 1 0 0 -0 -0 -0 -1 -1 -1 -0 -0 0 -1 -1 -1 -2 -2 -2 -2 -2 -1 -1 -1 -2
7 6 6 5 5 4 4 4 3 3 3 2 1 0 -1 -1 -0 1 1 0 0 0 0 -1 -1 -1 -0 -0 0 0 -0 -1 -1 -1 -2 -2 -2 -2 -2 -2 -2 -2 -2
7 6 6 5 4 4 4 2 2 2 2 1 0 -0 -1 -1 -0 0 0 -0 -1 -0 -0 -1 -1 -1 -1 -1 -1 -1 -1 -1 -1 -1 -1 -2 -2 -2 -2 -2 -2 -2 -2
7 6 5 5 4 4 3 3 2 1 0 0 -0 -1 -1 -1 -1 -0 -1 -1 -1 -1 -1 -1 -1 -1 -1 -1 -1 -1 -1 -1 -1 -1 -1 -1 -1 -2 -2 -2 -2 -2 -2
7 6 6 5 4 4 3 3 2 2 1 0 -1 -1 -1 -1 -1 -1 -1 -1 -1 -1 -1 -2 -2 -2 -1 -1 -1 -1 -1 -1 -1 -1 -1 -1 -1 -1 -2 -2 -2 -2 -2
7 6 5 5 4 4 3 2 2 1 1 0 -1 -1 -1 -1 -1 -1 -2 -2 -2 -2 -2 -2 -2 -2 -1 -1 -1 -2 -1 -1 -1 -1 -1 -1 -1 -1 -2 -2 -2 -2 -2
7 6 5 4 3 3 2 2 1 1 1 0 -0 -1 -1 -1 -2 -2 -2 -2 -2 -2 -2 -2 -2 -2 -2 -1 -1 -2 -1 -1 -1 -1 -1 -1 -1 -1 -2 -1 -1 -2 -2
6 5 5 4 3 3 2 1 1 1 0 -0 -0 -1 -1 -2 -2 -3 -3 -3 -3 -2 -3 -2 -2 -2 -2 -2 -2 -2 -2 -2 -1 -2 -1 -1 -1 -1 -1 -1 -1 -1 -1
5 4 4 3 3 2 1 1 1 0 -0 -0 -1 -1 -2 -2 -2 -3 -3 -3 -3 -3 -3 -3 -3 -3 -3 -3 -3 -3 -2 -2 -2 -1 -1 -1 -2 -2 -1 -1 -1 -1 -1
5 4 3 2 2 2 1 1 0 -0 -0 -1 -1 -2 -2 -2 -3 -3 -3 -3 -3 -3 -3 -3 -4 -4 -3 -3 -3 -3 -2 -2 -2 -2 -1 -2 -2 -2 -1 -1 -1 -1 -1
4 3 2 2 2 1 1 0 -0 -0 -1 -1 -1 -2 -2 -2 -3 -3 -4 -4 -4 -3 -3 -3 -3 -3 -3 -3 -3 -3 -2 -2 -2 -2 -2 -2 -2 -2 -1 -1 -1 -1 -1
4 3 2 2 1 1 0 -0 -0 -1 -1 -2 -2 -2 -3 -3 -3 -4 -4 -4 -4 -4 -3 -3 -3 -3 -3 -3 -3 -3 -2 -2 -2 -2 -2 -2 -2 -2 -2 -2 -1 -1 -1
3 3 2 2 1 1 0 -0 -1 -1 -2 -2 -2 -3 -3 -3 -4 -4 -5 -4 -4 -4 -4 -4 -4 -3 -3 -3 -3 -3 -3 -3 -3 -3 -3 -3 -3 -3 -2 -2 -2 -1 -1